Flag for Germany Weather past 2 weeks in Emmerich am Rhein, North Rhine-Westphalia, Germany

Now
64 °F

Passing clouds.


Feels Like: 64 °F
Forecast: 49 / 65 °F
Wind: 6 mph from West

Location: Niederrhein

Current Time: Aug 21, 2014 at 6:27:18 PM

Latest Report: Aug 21, 2014 at 5:50 PM


Visibility: N/A

Pressure: 29.98 "Hg

Humidity: 52%

Dew point: 46 °F

Location of Emmerich am RheinLocation

Historic Weather in Emmerich am Rhein — Graph

°F

Emmerich am Rhein temperature yesterday

Maximum temperature yesterday: 66 °F (at 1:50 PM)
Minimum temperature yesterday: 46 °F (at 5:20 AM)
Average temperature yesterday: 56 °F

Past Weeks' High & Low Weather Summary

 TemperatureHumidityPressure
High77 °F (Aug 8, 12:20 PM)100% (Aug 6, 10:50 PM)30.09 "Hg (Aug 6, 10:50 PM)
Low45 °F (Aug 21, 6:50 AM)41% (Aug 13, 4:50 PM)29.53 "Hg (Aug 10, 6:20 PM)
Average62 °F79%29.85 "Hg
* Reported Aug 6 5:20 PM — Aug 21 5:20 PM, Emmerich am Rhein, Weather by CustomWeather, © 2014

Note: Actual official high and low records may vary slightly from our data, if they occured in-between our weather recording intervals... More about our weather records

Advertising

Emmerich am Rhein weather history for previous 24 hours

 ConditionsComfort  
Time TempWeatherWind HumidityBarometerVisibility
5:20 PM
Aug 21
64 °FPassing clouds.6 mph52%29.98 "HgN/A
4:50 PM66 °FPassing clouds.5 mph49%29.98 "HgN/A
4:20 PM64 °FSunny.3 mph49%29.98 "Hg10 mi
3:50 PM63 °FPassing clouds.6 mph59%29.98 "HgN/A
3:20 PM63 °FPartly sunny.6 mph59%30.01 "HgN/A
2:50 PM63 °FSunny.6 mph59%30.01 "Hg10 mi
2:20 PM63 °FBroken clouds.9 mph56%30.01 "HgN/A
1:50 PM63 °FScattered clouds.7 mph52%30.01 "HgN/A
1:20 PM64 °FScattered clouds.10 mph56%30.01 "HgN/A
12:50 PM63 °FPassing clouds.9 mph59%30.01 "HgN/A
12:20 PM63 °FPassing clouds.7 mph64%30.01 "HgN/A
11:50 AM61 °FPassing clouds.7 mph68%30.01 "HgN/A
11:20 AM61 °FPassing clouds.7 mph68%30.04 "HgN/A
10:50 AM59 °FPassing clouds.7 mph68%30.04 "HgN/A
10:20 AM57 °FPassing clouds.8 mph72%30.04 "HgN/A
9:50 AM55 °FPassing clouds.8 mph82%30.04 "HgN/A
9:20 AM54 °FPassing clouds.7 mph88%30.04 "HgN/A
8:50 AM52 °FClear.6 mph100%30.04 "Hg4 mi
8:20 AM50 °FFog.5 mph100%30.04 "Hg1 mi
7:50 AM48 °FFog.2 mph100%30.01 "Hg1 mi
7:20 AM48 °FFog.3 mph100%30.01 "Hg1 mi
6:50 AM45 °FFog.3 mph100%30.01 "Hg1 mi
6:20 AM46 °FFog.3 mph100%30.01 "Hg2 mi
5:50 AM48 °FFog.2 mph100%30.01 "Hg2 mi
5:20 AM48 °FFog.2 mph100%30.01 "Hg3 mi
4:50 AM48 °FFog.5 mph100%30.01 "Hg3 mi
11:50 PM
Aug 20
50 °FClear.No wind100%30.01 "Hg4 mi
11:20 PM52 °FPassing clouds.5 mph94%30.01 "HgN/A
10:50 PM52 °FPassing clouds.5 mph100%30.01 "HgN/A
10:20 PM54 °FSunny.5 mph100%30.01 "Hg10 mi
9:50 PM54 °FSunny.2 mph100%30.01 "Hg10 mi
9:20 PM54 °FSunny.1 mph94%30.01 "Hg10 mi
8:50 PM55 °FSunny.1 mph88%30.01 "Hg10 mi
8:20 PM55 °FSunny.3 mph88%30.01 "Hg10 mi
7:50 PM57 °FPassing clouds.5 mph82%30.01 "HgN/A
7:20 PM57 °FPassing clouds.7 mph82%30.01 "HgN/A
6:50 PM57 °FSunny.2 mph82%29.98 "Hg10 mi
6:20 PM55 °FSunny.3 mph82%29.98 "Hg10 mi
Weather by CustomWeather, © 2014

See weather overviewHow to use our weather pages